TimeCET,TemperatureF,Dew PointF,Humidity,Sea Level PressureIn,VisibilityMPH,Wind Direction,Wind SpeedMPH,Gust SpeedMPH,PrecipitationIn,Events,Conditions,WindDirDegrees,DateUTC
12:20 AM,41.0,35.6,81,29.68,5.0,NNE,2.3,-,N/A,,Unknown,20,2013-02-21 23:20:00
12:50 AM,37.4,33.8,87,29.68,5.0,Variable,2.3,-,N/A,,Unknown,0,2013-02-21 23:50:00
1:20 AM,37.4,35.6,93,29.68,5.0,WNW,3.5,-,N/A,,Unknown,290,2013-02-22 00:20:00
1:50 AM,41.0,35.6,81,29.68,5.0,Variable,2.3,-,N/A,,Unknown,0,2013-02-22 00:50:00
2:20 AM,37.4,33.8,87,29.68,5.0,Variable,1.2,-,N/A,,Unknown,0,2013-02-22 01:20:00
2:50 AM,37.4,33.8,87,29.68,5.0,Calm,Calm,-,N/A,,Unknown,0,2013-02-22 01:50:00
3:20 AM,39.2,35.6,87,29.65,5.0,Variable,1.2,-,N/A,,Unknown,0,2013-02-22 02:20:00
3:50 AM,37.4,33.8,87,29.65,5.0,ENE,3.5,-,N/A,,Unknown,60,2013-02-22 02:50:00
4:20 AM,37.4,35.6,93,29.65,3.1,Variable,1.2,-,N/A,,Mist,0,2013-02-22 03:20:00
4:50 AM,37.4,35.6,93,29.65,3.1,Variable,2.3,-,N/A,,Mist,0,2013-02-22 03:50:00
5:20 AM,39.2,35.6,87,29.65,3.1,Variable,1.2,-,N/A,,Mist,0,2013-02-22 04:20:00
5:50 AM,41.0,35.6,81,29.65,3.1,Variable,2.3,-,N/A,,Mist,0,2013-02-22 04:50:00
6:20 AM,41.0,37.4,87,29.65,5.0,WNW,3.5,-,N/A,,Unknown,290,2013-02-22 05:20:00
6:50 AM,41.0,37.4,87,29.65,5.0,NNW,11.5,-,N/A,Rain,Light Rain,330,2013-02-22 05:50:00
7:20 AM,42.8,39.2,87,29.65,3.1,NNW,3.5,-,N/A,Rain,Light Rain,340,2013-02-22 06:20:00
7:50 AM,42.8,39.2,87,29.65,3.1,ESE,4.6,-,N/A,,Mostly Cloudy,120,2013-02-22 06:50:00
8:20 AM,42.8,41.0,93,29.65,5.0,Variable,2.3,-,N/A,Rain,Light Rain,0,2013-02-22 07:20:00
8:50 AM,44.6,42.8,93,29.65,5.0,Variable,1.2,-,N/A,Rain,Light Rain,0,2013-02-22 07:50:00
9:20 AM,46.4,42.8,87,29.65,5.0,NE,4.6,-,N/A,Rain,Light Rain,40,2013-02-22 08:20:00
9:50 AM,48.2,44.6,87,29.65,4.3,ENE,3.5,-,N/A,Rain,Light Rain,60,2013-02-22 08:50:00
10:20 AM,48.2,44.6,87,29.65,3.1,North,3.5,-,N/A,Rain,Light Rain,10,2013-02-22 09:20:00
10:50 AM,48.2,44.6,87,29.65,3.1,NW,5.8,-,N/A,Rain,Light Rain,310,2013-02-22 09:50:00
11:20 AM,46.4,44.6,93,29.65,1.9,NNW,3.5,-,N/A,Rain,Light Rain,330,2013-02-22 10:20:00
11:50 AM,48.2,46.4,93,29.62,3.1,East,3.5,-,N/A,Rain,Light Rain,90,2013-02-22 10:50:00
12:20 PM,50.0,48.2,94,29.62,1.6,East,3.5,-,N/A,Rain,Mostly Cloudy,90,2013-02-22 11:20:00
12:50 PM,48.2,48.2,100,29.62,0.9,ENE,3.5,-,N/A,Rain,Mostly Cloudy,70,2013-02-22 11:50:00
1:20 PM,50.0,48.2,94,29.59,0.5,East,4.6,-,N/A,Fog-Rain,Heavy Fog,80,2013-02-22 12:20:00
1:50 PM,50.0,48.2,94,29.56,1.6,ENE,3.5,-,N/A,Rain,Rain,70,2013-02-22 12:50:00
2:20 PM,51.8,48.2,88,29.56,2.2,NE,4.6,-,N/A,,Overcast,40,2013-02-22 13:20:00
2:50 PM,51.8,50.0,94,29.56,2.5,Variable,2.3,-,N/A,,Mostly Cloudy,0,2013-02-22 13:50:00
3:20 PM,51.8,50.0,94,29.53,2.5,ESE,3.5,-,N/A,,Mostly Cloudy,110,2013-02-22 14:20:00
3:50 PM,53.6,50.0,88,29.53,2.5,South,4.6,-,N/A,,Mostly Cloudy,170,2013-02-22 14:50:00
4:20 PM,53.6,50.0,88,29.53,3.1,South,8.1,-,N/A,,Mostly Cloudy,180,2013-02-22 15:20:00
4:50 PM,55.4,50.0,82,29.53,5.0,South,5.8,-,N/A,,Mostly Cloudy,190,2013-02-22 15:50:00
5:20 PM,55.4,51.8,88,29.53,3.7,SSW,4.6,-,N/A,,Mostly Cloudy,200,2013-02-22 16:20:00
5:50 PM,55.4,51.8,88,29.50,3.7,SSW,8.1,-,N/A,,Mostly Cloudy,200,2013-02-22 16:50:00
6:20 PM,55.4,51.8,88,29.50,3.1,SSE,6.9,-,N/A,Rain,Rain,160,2013-02-22 17:20:00
6:50 PM,53.6,50.0,88,29.50,2.5,SSE,5.8,-,N/A,Rain,Light Rain,160,2013-02-22 17:50:00
7:20 PM,55.4,51.8,88,29.50,5.0,South,10.4,-,N/A,Rain,Light Rain,180,2013-02-22 18:20:00
7:50 PM,53.6,51.8,94,29.50,5.0,South,12.7,-,N/A,Rain,Light Rain,180,2013-02-22 18:50:00
8:20 PM,55.4,53.6,94,29.50,5.0,South,15.0,27.6,N/A,Rain,Rain,190,2013-02-22 19:20:00
8:50 PM,53.6,51.8,94,29.50,5.0,SW,13.8,25.3,N/A,Rain,Rain,220,2013-02-22 19:50:00
9:20 PM,53.6,51.8,94,29.50,5.0,SSW,10.4,-,N/A,Rain,Rain,200,2013-02-22 20:20:00
9:50 PM,53.6,51.8,94,29.50,5.0,South,9.2,-,N/A,Rain,Rain,190,2013-02-22 20:50:00
10:20 PM,53.6,51.8,94,29.50,5.0,South,9.2,-,N/A,Rain,Rain,180,2013-02-22 21:20:00
10:50 PM,55.4,53.6,94,29.47,2.5,South,10.4,21.9,N/A,Rain,Rain,190,2013-02-22 21:50:00
11:20 PM,55.4,51.8,88,29.50,5.0,West,10.4,-,N/A,Rain,Rain,280,2013-02-22 22:20:00
11:50 PM,53.6,50.0,88,29.50,5.0,WSW,9.2,-,N/A,Rain,Rain,250,2013-02-22 22:50:00